Time,TemperatureF,DewpointF,PressureIn,WindDirection,WindDirectionDegrees,WindSpeedMPH,WindSpeedGustMPH,Humidity,HourlyPrecipIn,Conditions,Clouds,dailyrainin,SoftwareType,DateUTC
2013-05-29 00:03:00,71.0,63.0,30.12,South,188,1.0,5.0,76,0.00,,,0.00,,2013-05-29 04:03:00,
2013-05-29 00:13:00,71.0,63.0,30.12,South,188,1.0,5.0,76,0.00,,,0.00,,2013-05-29 04:13:00,
2013-05-29 00:23:00,71.0,63.0,30.12,South,180,1.0,5.0,76,0.00,,,0.00,,2013-05-29 04:23:00,
2013-05-29 00:33:00,71.0,63.0,30.13,SSW,201,1.0,4.0,76,0.00,,,0.00,,2013-05-29 04:33:00,
2013-05-29 00:42:00,71.0,63.0,30.13,SSW,201,1.0,4.0,76,0.00,,,0.00,,2013-05-29 04:42:00,
2013-05-29 00:52:00,70.0,62.0,30.13,SSW,201,1.0,4.0,76,0.00,,,0.00,,2013-05-29 04:52:00,
2013-05-29 01:03:00,70.0,62.0,30.13,South,189,2.0,5.0,77,0.00,,,0.00,,2013-05-29 05:03:00,
2013-05-29 01:12:00,70.0,62.0,30.13,South,189,2.0,5.0,77,0.00,,,0.00,,2013-05-29 05:12:00,
2013-05-29 01:22:00,70.0,62.0,30.13,South,188,0.0,4.0,77,0.00,,,0.00,,2013-05-29 05:22:00,
2013-05-29 01:33:00,69.0,61.0,30.12,South,182,1.0,4.0,77,0.00,,,0.00,,2013-05-29 05:33:00,
2013-05-29 01:42:00,69.0,61.0,30.12,South,182,1.0,4.0,77,0.00,,,0.00,,2013-05-29 05:42:00,
2013-05-29 01:52:00,69.0,61.0,30.13,South,178,0.0,8.0,77,0.00,,,0.00,,2013-05-29 05:52:00,
2013-05-29 02:02:00,69.0,62.0,30.12,SSW,195,0.0,4.0,78,0.00,,,0.00,,2013-05-29 06:02:00,
2013-05-29 02:12:00,69.0,62.0,30.12,SSW,195,0.0,4.0,78,0.00,,,0.00,,2013-05-29 06:12:00,
2013-05-29 02:22:00,68.0,61.0,30.12,SSW,195,0.0,2.0,78,0.00,,,0.00,,2013-05-29 06:22:00,
2013-05-29 02:32:00,68.0,61.0,30.12,SSE,156,2.0,4.0,79,0.00,,,0.00,,2013-05-29 06:32:00,
2013-05-29 02:42:00,68.0,61.0,30.12,SSE,156,2.0,4.0,79,0.00,,,0.00,,2013-05-29 06:42:00,
2013-05-29 02:52:00,67.0,61.0,30.11,SSE,156,0.0,3.0,80,0.00,,,0.00,,2013-05-29 06:52:00,
2013-05-29 03:01:00,67.0,61.0,30.11,SSE,156,0.0,2.0,82,0.00,,,0.00,,2013-05-29 07:01:00,
2013-05-29 03:12:00,67.0,61.0,30.11,SSE,156,0.0,2.0,82,0.00,,,0.00,,2013-05-29 07:12:00,
2013-05-29 03:22:00,66.0,60.0,30.11,SSE,156,0.0,2.0,82,0.00,,,0.00,,2013-05-29 07:22:00,
2013-05-29 03:34:00,66.0,61.0,30.12,SSE,156,0.0,0.0,83,0.00,,,0.00,,2013-05-29 07:34:00,
2013-05-29 03:42:00,66.0,61.0,30.12,SSE,156,0.0,0.0,83,0.00,,,0.00,,2013-05-29 07:42:00,
2013-05-29 03:52:00,65.0,60.0,30.13,SSE,156,0.0,0.0,83,0.00,,,0.00,,2013-05-29 07:52:00,
2013-05-29 04:02:00,65.0,60.0,30.13,SSE,156,0.0,0.0,84,0.00,,,0.00,,2013-05-29 08:02:00,
2013-05-29 04:11:00,65.0,60.0,30.13,SSE,156,0.0,0.0,84,0.00,,,0.00,,2013-05-29 08:11:00,
2013-05-29 04:22:00,64.0,59.0,30.13,SSE,156,0.0,1.0,85,0.00,,,0.00,,2013-05-29 08:22:00,
2013-05-29 04:32:00,63.0,59.0,30.14,SSE,156,0.0,0.0,87,0.00,,,0.00,,2013-05-29 08:32:00,
2013-05-29 04:42:00,63.0,59.0,30.14,SSE,156,0.0,0.0,87,0.00,,,0.00,,2013-05-29 08:42:00,
2013-05-29 04:52:00,62.0,58.0,30.14,SSE,156,0.0,0.0,88,0.00,,,0.00,,2013-05-29 08:52:00,
2013-05-29 05:01:00,61.0,58.0,30.15,SSE,156,0.0,0.0,89,0.00,,,0.00,,2013-05-29 09:01:00,
2013-05-29 05:11:00,61.0,58.0,30.15,SSE,156,0.0,0.0,89,0.00,,,0.00,,2013-05-29 09:11:00,
2013-05-29 05:21:00,61.0,58.0,30.15,SSE,156,0.0,2.0,90,0.00,,,0.00,,2013-05-29 09:21:00,
2013-05-29 05:33:00,61.0,58.0,30.15,SSE,156,0.0,0.0,90,0.00,,,0.00,,2013-05-29 09:33:00,
2013-05-29 05:42:00,61.0,58.0,30.15,SSE,156,0.0,0.0,90,0.00,,,0.00,,2013-05-29 09:42:00,
2013-05-29 05:52:00,60.0,57.0,30.15,SSE,156,0.0,0.0,91,0.00,,,0.00,,2013-05-29 09:52:00,
2013-05-29 06:03:00,60.0,57.0,30.16,SSE,156,0.0,0.0,91,0.00,,,0.00,,2013-05-29 10:03:00,
2013-05-29 06:12:00,60.0,57.0,30.16,SSE,156,0.0,0.0,91,0.00,,,0.00,,2013-05-29 10:12:00,
2013-05-29 06:22:00,60.0,58.0,30.15,SSE,156,0.0,0.0,92,0.00,,,0.00,,2013-05-29 10:22:00,
2013-05-29 06:33:00,59.0,57.0,30.15,SSE,156,0.0,0.0,92,0.00,,,0.00,,2013-05-29 10:33:00,
2013-05-29 06:42:00,59.0,57.0,30.15,SSE,156,0.0,0.0,92,0.00,,,0.00,,2013-05-29 10:42:00,
2013-05-29 06:52:00,59.0,57.0,30.16,SSE,156,0.0,0.0,92,0.00,,,0.00,,2013-05-29 10:52:00,
2013-05-29 07:02:00,59.0,57.0,30.16,SSE,156,0.0,0.0,92,0.00,,,0.00,,2013-05-29 11:02:00,
2013-05-29 07:12:00,59.0,57.0,30.16,SSE,156,0.0,0.0,92,0.00,,,0.00,,2013-05-29 11:12:00,
2013-05-29 07:22:00,59.0,57.0,30.16,SSE,156,0.0,1.0,93,0.00,,,0.00,,2013-05-29 11:22:00,
2013-05-29 07:32:00,59.0,57.0,30.17,SSE,156,0.0,0.0,94,0.00,,,0.00,,2013-05-29 11:32:00,
2013-05-29 07:42:00,59.0,57.0,30.17,SSE,156,0.0,0.0,94,0.00,,,0.00,,2013-05-29 11:42:00,
2013-05-29 07:52:00,59.0,57.0,30.17,SSE,156,0.0,0.0,94,0.00,,,0.00,,2013-05-29 11:52:00,
2013-05-29 08:01:00,60.0,59.0,30.17,SSE,156,0.0,0.0,95,0.00,,,0.00,,2013-05-29 12:01:00,
2013-05-29 08:11:00,60.0,59.0,30.17,SSE,156,0.0,0.0,95,0.00,,,0.00,,2013-05-29 12:11:00,
2013-05-29 08:22:00,61.0,60.0,30.17,SSE,156,0.0,0.0,95,0.00,,,0.00,,2013-05-29 12:22:00,
2013-05-29 08:32:00,62.0,61.0,30.17,SSE,156,0.0,0.0,95,0.00,,,0.00,,2013-05-29 12:32:00,
2013-05-29 08:42:00,62.0,61.0,30.17,SSE,156,0.0,0.0,95,0.00,,,0.00,,2013-05-29 12:42:00,
2013-05-29 08:52:00,64.0,62.0,30.18,SSE,156,0.0,0.0,94,0.00,,,0.00,,2013-05-29 12:52:00,
2013-05-29 09:02:00,66.0,63.0,30.18,SSE,156,0.0,0.0,89,0.00,,,0.00,,2013-05-29 13:02:00,
2013-05-29 09:11:00,66.0,63.0,30.18,SSE,156,0.0,0.0,89,0.00,,,0.00,,2013-05-29 13:11:00,
2013-05-29 09:22:00,69.0,64.0,30.18,SSW,198,0.0,3.0,85,0.00,,,0.00,,2013-05-29 13:22:00,
2013-05-29 09:32:00,70.0,64.0,30.19,West,267,1.0,7.0,82,0.00,,,0.00,,2013-05-29 13:32:00,
2013-05-29 09:42:00,70.0,64.0,30.19,West,267,1.0,7.0,82,0.00,,,0.00,,2013-05-29 13:42:00,
2013-05-29 09:53:00,70.0,64.0,30.19,SW,219,2.0,5.0,81,0.00,,,0.00,,2013-05-29 13:53:00,
2013-05-29 10:02:00,71.0,64.0,30.19,WSW,253,2.0,8.0,79,0.00,,,0.00,,2013-05-29 14:02:00,
2013-05-29 10:11:00,71.0,64.0,30.19,WSW,253,2.0,8.0,79,0.00,,,0.00,,2013-05-29 14:11:00,
2013-05-29 10:21:00,72.0,64.0,30.19,SSW,194,5.0,7.0,77,0.00,,,0.00,,2013-05-29 14:21:00,
2013-05-29 10:32:00,73.0,64.0,30.19,South,188,5.0,10.0,74,0.00,,,0.00,,2013-05-29 14:32:00,
2013-05-29 10:42:00,73.0,64.0,30.19,South,188,5.0,10.0,74,0.00,,,0.00,,2013-05-29 14:42:00,
2013-05-29 10:52:00,74.0,64.0,30.19,West,259,2.0,8.0,71,0.00,,,0.00,,2013-05-29 14:52:00,
2013-05-29 11:01:00,74.0,64.0,30.19,WNW,285,2.0,5.0,71,0.00,,,0.00,,2013-05-29 15:01:00,
2013-05-29 11:11:00,74.0,64.0,30.19,WNW,285,2.0,5.0,71,0.00,,,0.00,,2013-05-29 15:11:00,
2013-05-29 11:21:00,73.0,63.0,30.19,West,265,1.0,4.0,71,0.00,,,0.00,,2013-05-29 15:21:00,
2013-05-29 11:33:00,74.0,63.0,30.19,South,190,5.0,7.0,68,0.00,,,0.00,,2013-05-29 15:33:00,
2013-05-29 11:42:00,74.0,63.0,30.19,South,190,5.0,7.0,68,0.00,,,0.00,,2013-05-29 15:42:00,
2013-05-29 11:53:00,76.0,62.0,30.19,SSE,163,0.0,5.0,63,0.00,,,0.00,,2013-05-29 15:53:00,
2013-05-29 12:03:00,77.0,64.0,30.19,SE,137,3.0,8.0,65,0.00,,,0.00,,2013-05-29 16:03:00,
2013-05-29 12:13:00,77.0,64.0,30.19,SE,137,3.0,8.0,65,0.00,,,0.00,,2013-05-29 16:13:00,
2013-05-29 12:22:00,78.0,63.0,30.19,WSW,240,2.0,9.0,60,0.00,,,0.00,,2013-05-29 16:22:00,
2013-05-29 12:33:00,79.0,63.0,30.19,SW,223,2.0,5.0,59,0.00,,,0.00,,2013-05-29 16:33:00,
2013-05-29 12:42:00,79.0,63.0,30.19,SW,223,2.0,5.0,59,0.00,,,0.00,,2013-05-29 16:42:00,
2013-05-29 12:52:00,80.0,63.0,30.19,South,187,4.0,7.0,56,0.00,,,0.00,,2013-05-29 16:52:00,
2013-05-29 13:02:00,80.0,62.0,30.19,ESE,115,3.0,6.0,55,0.00,,,0.00,,2013-05-29 17:02:00,
2013-05-29 13:12:00,80.0,62.0,30.19,ESE,115,3.0,6.0,55,0.00,,,0.00,,2013-05-29 17:12:00,
2013-05-29 13:22:00,80.0,61.0,30.19,South,184,4.0,8.0,53,0.00,,,0.00,,2013-05-29 17:22:00,
2013-05-29 13:32:00,81.0,62.0,30.18,ENE,74,1.0,7.0,53,0.00,,,0.00,,2013-05-29 17:32:00,
2013-05-29 13:42:00,81.0,62.0,30.18,ENE,74,1.0,7.0,53,0.00,,,0.00,,2013-05-29 17:42:00,
2013-05-29 13:52:00,81.0,62.0,30.18,SW,221,4.0,9.0,52,0.00,,,0.00,,2013-05-29 17:52:00,
2013-05-29 14:01:00,81.0,62.0,30.17,ESE,116,3.0,11.0,52,0.00,,,0.00,,2013-05-29 18:01:00,
2013-05-29 14:13:00,81.0,62.0,30.17,ESE,116,3.0,11.0,52,0.00,,,0.00,,2013-05-29 18:13:00,
2013-05-29 14:22:00,82.0,62.0,30.17,WNW,284,3.0,16.0,51,0.00,,,0.00,,2013-05-29 18:22:00,
2013-05-29 14:32:00,82.0,62.0,30.16,WSW,237,2.0,6.0,51,0.00,,,0.00,,2013-05-29 18:32:00,
2013-05-29 14:42:00,82.0,62.0,30.16,WSW,237,2.0,6.0,51,0.00,,,0.00,,2013-05-29 18:42:00,
2013-05-29 14:52:00,82.0,61.0,30.16,SSW,198,3.0,10.0,50,0.00,,,0.00,,2013-05-29 18:52:00,
2013-05-29 15:02:00,83.0,62.0,30.15,NE,52,0.0,7.0,50,0.00,,,0.00,,2013-05-29 19:02:00,
2013-05-29 15:11:00,83.0,62.0,30.15,NE,52,0.0,7.0,50,0.00,,,0.00,,2013-05-29 19:11:00,
2013-05-29 15:22:00,84.0,62.0,30.15,South,191,5.0,10.0,47,0.00,,,0.00,,2013-05-29 19:22:00,
2013-05-29 15:32:00,84.0,61.0,30.15,West,275,0.0,6.0,46,0.00,,,0.00,,2013-05-29 19:32:00,
2013-05-29 15:44:00,84.0,61.0,30.15,West,275,0.0,6.0,46,0.00,,,0.00,,2013-05-29 19:44:00,
2013-05-29 15:53:00,84.0,61.0,30.14,SW,215,1.0,8.0,46,0.00,,,0.00,,2013-05-29 19:53:00,
2013-05-29 16:03:00,85.0,62.0,30.13,SSW,207,2.0,6.0,47,0.00,,,0.00,,2013-05-29 20:03:00,
2013-05-29 16:12:00,85.0,62.0,30.13,SSW,207,2.0,6.0,47,0.00,,,0.00,,2013-05-29 20:12:00,
2013-05-29 16:23:00,85.0,63.0,30.13,SSW,192,2.0,8.0,48,0.00,,,0.00,,2013-05-29 20:23:00,
2013-05-29 16:33:00,85.0,62.0,30.13,SW,215,3.0,7.0,47,0.00,,,0.00,,2013-05-29 20:33:00,
2013-05-29 16:42:00,85.0,62.0,30.13,SW,215,3.0,7.0,47,0.00,,,0.00,,2013-05-29 20:42:00,
2013-05-29 16:52:00,84.0,62.0,30.12,SSW,199,6.0,17.0,48,0.00,,,0.00,,2013-05-29 20:52:00,
2013-05-29 17:02:00,84.0,62.0,30.11,SW,230,3.0,8.0,48,0.00,,,0.00,,2013-05-29 21:02:00,
2013-05-29 17:12:00,84.0,62.0,30.11,SW,230,3.0,8.0,48,0.00,,,0.00,,2013-05-29 21:12:00,
2013-05-29 17:22:00,85.0,63.0,30.11,SSE,168,2.0,13.0,48,0.00,,,0.00,,2013-05-29 21:22:00,
2013-05-29 17:33:00,84.0,62.0,30.11,ESE,111,1.0,11.0,48,0.00,,,0.00,,2013-05-29 21:33:00,
2013-05-29 17:43:00,84.0,62.0,30.11,ESE,111,1.0,11.0,48,0.00,,,0.00,,2013-05-29 21:43:00,
2013-05-29 17:53:00,85.0,63.0,30.10,South,179,2.0,8.0,48,0.00,,,0.00,,2013-05-29 21:53:00,
2013-05-29 18:03:00,85.0,64.0,30.10,ESE,109,4.0,7.0,49,0.00,,,0.00,,2013-05-29 22:03:00,
2013-05-29 18:13:00,85.0,64.0,30.10,ESE,109,4.0,7.0,49,0.00,,,0.00,,2013-05-29 22:13:00,
2013-05-29 18:23:00,84.0,63.0,30.10,ESE,117,4.0,10.0,49,0.00,,,0.00,,2013-05-29 22:23:00,
2013-05-29 18:34:00,84.0,63.0,30.10,South,171,4.0,9.0,49,0.00,,,0.00,,2013-05-29 22:34:00,
2013-05-29 18:42:00,84.0,63.0,30.10,South,171,4.0,9.0,49,0.00,,,0.00,,2013-05-29 22:42:00,
2013-05-29 18:53:00,84.0,62.0,30.10,ESE,120,2.0,9.0,48,0.00,,,0.00,,2013-05-29 22:53:00,
2013-05-29 19:02:00,83.0,62.0,30.10,ESE,123,2.0,9.0,49,0.00,,,0.00,,2013-05-29 23:02:00,
2013-05-29 19:12:00,83.0,62.0,30.10,ESE,123,2.0,9.0,49,0.00,,,0.00,,2013-05-29 23:12:00,
2013-05-29 19:22:00,83.0,62.0,30.10,East,95,2.0,5.0,50,0.00,,,0.00,,2013-05-29 23:22:00,
2013-05-29 19:33:00,83.0,63.0,30.10,SE,137,1.0,7.0,51,0.00,,,0.00,,2013-05-29 23:33:00,
2013-05-29 19:42:00,83.0,63.0,30.10,SE,137,1.0,7.0,51,0.00,,,0.00,,2013-05-29 23:42:00,
2013-05-29 19:53:00,82.0,63.0,30.10,SSE,157,0.0,4.0,52,0.00,,,0.00,,2013-05-29 23:53:00,
2013-05-29 20:02:00,82.0,64.0,30.10,South,190,1.0,4.0,54,0.00,,,0.00,,2013-05-30 00:02:00,
2013-05-29 20:12:00,82.0,64.0,30.10,South,190,1.0,4.0,54,0.00,,,0.00,,2013-05-30 00:12:00,
2013-05-29 20:22:00,82.0,66.0,30.10,South,190,0.0,2.0,59,0.00,,,0.00,,2013-05-30 00:22:00,
2013-05-29 20:32:00,81.0,66.0,30.10,South,190,0.0,0.0,61,0.00,,,0.00,,2013-05-30 00:32:00,
2013-05-29 20:42:00,81.0,66.0,30.10,South,190,0.0,0.0,61,0.00,,,0.00,,2013-05-30 00:42:00,
2013-05-29 20:52:00,80.0,65.0,30.09,South,190,0.0,0.0,61,0.00,,,0.00,,2013-05-30 00:52:00,
2013-05-29 21:02:00,79.0,67.0,30.09,South,190,0.0,0.0,67,0.00,,,0.00,,2013-05-30 01:02:00,
2013-05-29 21:11:00,79.0,67.0,30.09,South,190,0.0,0.0,67,0.00,,,0.00,,2013-05-30 01:11:00,
2013-05-29 21:22:00,77.0,66.0,30.10,South,190,0.0,0.0,70,0.00,,,0.00,,2013-05-30 01:22:00,
2013-05-29 21:32:00,75.0,65.0,30.10,South,190,0.0,0.0,71,0.00,,,0.00,,2013-05-30 01:32:00,
2013-05-29 21:42:00,75.0,65.0,30.10,South,190,0.0,0.0,71,0.00,,,0.00,,2013-05-30 01:42:00,
2013-05-29 21:52:00,74.0,66.0,30.10,South,190,0.0,0.0,75,0.00,,,0.00,,2013-05-30 01:52:00,
2013-05-29 22:02:00,73.0,65.0,30.11,South,190,0.0,0.0,77,0.00,,,0.00,,2013-05-30 02:02:00,
2013-05-29 22:11:00,73.0,65.0,30.11,South,190,0.0,0.0,77,0.00,,,0.00,,2013-05-30 02:11:00,
2013-05-29 22:22:00,72.0,65.0,30.11,South,190,0.0,0.0,79,0.00,,,0.00,,2013-05-30 02:22:00,
2013-05-29 22:32:00,71.0,65.0,30.12,South,190,0.0,0.0,81,0.00,,,0.00,,2013-05-30 02:32:00,
2013-05-29 22:42:00,71.0,65.0,30.12,South,190,0.0,0.0,81,0.00,,,0.00,,2013-05-30 02:42:00,
2013-05-29 22:52:00,71.0,65.0,30.12,South,190,0.0,0.0,81,0.00,,,0.00,,2013-05-30 02:52:00,
2013-05-29 23:02:00,70.0,65.0,30.13,South,190,0.0,0.0,84,0.00,,,0.00,,2013-05-30 03:02:00,
2013-05-29 23:11:00,69.0,64.0,30.13,South,190,0.0,0.0,85,0.00,,,0.00,,2013-05-30 03:11:00,
2013-05-29 23:21:00,69.0,64.0,30.13,South,190,0.0,0.0,85,0.00,,,0.00,,2013-05-30 03:21:00,
2013-05-29 23:33:00,69.0,65.0,30.13,South,190,0.0,0.0,86,0.00,,,0.00,,2013-05-30 03:33:00,
2013-05-29 23:43:00,69.0,65.0,30.13,South,190,0.0,0.0,86,0.00,,,0.00,,2013-05-30 03:43:00,
2013-05-29 23:53:00,68.0,64.0,30.13,South,190,0.0,0.0,87,0.00,,,0.00,,2013-05-30 03:53:00,